Location: Härggis
(46.9540°N, 8.4897°E)
Time: 21:27:29
(UTC+00:00)

Genesis I - Pass Details

Date: 27 May 2022
Orbit: 463 x 544 km, 64.5° (Epoch: 02 July)

Event Time Altitude Azimuth Distance (km) Brightness Sun altitude
Rises 02:35:59 0° 320° (NW) 2,715 6.9 -9.1°
Reaches altitude 10° 02:38:13 10° 318° (NW) 1,814 6.0 -8.9°
Maximum altitude 02:42:16 70° 236° (WSW) 576 3.2 -8.4°
Drops below altitude 10° 02:46:13 10° 152° (SSE) 1,770 5.8 -7.9°
Sets 02:48:23 0° 150° (SSE) 2,642 6.7 -7.6°
